This is the latest recevied weather packets stored in our database for station/object KW4UJ. If no packets are shown the sender has not sent any weather packets the latest 10 day(s).
| Time | Temp. | Humidity | Pressure | Rain* | Wind** | Luminosity | Snow |
|---|---|---|---|---|---|---|---|
| 1777481528 | 15° C | 80% | 1012.3 hPa | 0 mm | - | 101 W/m² | - |
| 1777481225 | 15° C | 80% | 1012.6 hPa | 0 mm | - | 84 W/m² | - |
| 1777480922 | 15° C | 80% | 1012.5 hPa | 0 mm | - | 76 W/m² | - |
| 1777480618 | 15° C | 80% | 1012.6 hPa | 0 mm | - | 61 W/m² | - |
| 1777480316 | 15° C | 80% | 1012.6 hPa | 0 mm | - | 63 W/m² | - |
| 1777480011 | 15° C | 80% | 1012.5 hPa | 0 mm | - | 87 W/m² | - |
| 1777479708 | 15° C | 80% | 1012.9 hPa | 0 mm | - | 83 W/m² | - |
| 1777479407 | 15° C | 80% | 1012.9 hPa | 0 mm | - | 104 W/m² | - |
| 1777479102 | 15° C | 79% | 1012.8 hPa | 0 mm | - | 119 W/m² | - |
| 1777478799 | 15° C | 78% | 1012.8 hPa | 0 mm | - | 106 W/m² | - |
| 1777478496 | 15° C | 78% | 1013 hPa | 0 mm | - | 121 W/m² | - |
| 1777478193 | 15° C | 78% | 1013.1 hPa | 0 mm | - | 158 W/m² | - |
| 1777477889 | 15° C | 78% | 1012.9 hPa | 0 mm | - | 143 W/m² | - |
| 1777477584 | 15° C | 78% | 1013.1 hPa | 0 mm | - | 134 W/m² | - |
| 1777477281 | 15° C | 77% | 1013.2 hPa | 0 mm | - | 150 W/m² | - |
| 1777476977 | 15° C | 77% | 1013.2 hPa | 0 mm | - | 187 W/m² | - |
| 1777476676 | 15° C | 78% | 1013.4 hPa | 0 mm | - | 126 W/m² | - |
| 1777476372 | 15° C | 78% | 1013.6 hPa | 0 mm | - | 115 W/m² | - |
| 1777476069 | 15° C | 77% | 1013.5 hPa | 0 mm | - | 121 W/m² | - |
| 1777475763 | 14.44° C | 77% | 1013.7 hPa | 0 mm | - | 207 W/m² | - |
| 1777475461 | 14.44° C | 77% | 1013.7 hPa | 0 mm | - | 183 W/m² | - |
| 1777475155 | 14.44° C | 77% | 1013.9 hPa | 0 mm | - | 141 W/m² | - |
| 1777474852 | 14.44° C | 76% | 1013.7 hPa | 0 mm | - | 164 W/m² | - |
| 1777474548 | 14.44° C | 78% | 1013.8 hPa | 0 mm | - | 224 W/m² | - |
| 1777474245 | 14.44° C | 78% | 1013.5 hPa | 0 mm | - | 132 W/m² | - |
* Rain latest hour (hover to see other rain measurements)
** Current wind speed in m/s (hover to see current wind gust speed)